Home > Weather > Guadalajara > Past weeks

Flag for Mexico Weather for the Past 2 Weeks in Guadalajara, Jalisco, Mexico

Now
57 °F

Overcast.


Feels Like: 55 °F
Forecast: 51 / 74 °F
Wind: 9 mph from East

Location: Don Miguel / Guadalaj

Current Time: Feb 9, 2016 at 4:36:42 AM

Latest Report: Feb 9, 2016 at 3:47 AM


Visibility: 10 mi

Pressure: 30.25 "Hg (25.18 "Hg at 1543m altitude)

Humidity: 23%

Dew point: 19 °F

Location of GuadalajaraLocation

Historic Weather in Guadalajara — Graph

°F

Guadalajara Temperature Yesterday

Maximum temperature yesterday: 79 °F (at 3:46 PM)
Minimum temperature yesterday: 37 °F (at 5:50 AM)
Average temperature yesterday: 55 °F

High & Low Weather Summary for the Past Weeks

 TemperatureHumidityPressure
High81 °F (Feb 1, 2:48 PM)93% (Jan 31, 6:53 AM)30.42 "Hg (Jan 31, 6:53 AM)
Low30 °F (Feb 3, 7:47 AM)5% (Feb 3, 4:47 PM)29.76 "Hg (Feb 2, 2:47 PM)
Average58 °F41%30.11 "Hg
* Reported Jan 25 2:07 AM — Feb 9 2:47 AM, Guadalajara, Weather by CustomWeather, © 2016

Note: Actual official high and low records may vary slightly from our data, if they occured in-between our weather recording intervals... More about our weather records

Advertising

Guadalajara Weather History for the Previous 24 Hours

 ConditionsComfort  
Time TempWeatherWind HumidityBarometerVisibility
2:47 AM
Tue, Feb 9
59 °FOvercast.7 mph20%29.95 "Hg10 mi
12:55 AM61 °FOvercast.No wind16%30.26 "Hg10 mi
7:47 PM
Mon, Feb 8
68 °FOvercast.No wind16%30.17 "Hg10 mi
6:47 PM73 °FCloudy.9 mph12%30.15 "Hg10 mi
3:46 PM79 °FCloudy.8 mph10%30.12 "Hg8 mi
2:52 PM77 °FCloudy.3 mph9%29.94 "Hg8 mi
1:47 PM75 °FPartly sunny.No wind11%30.20 "Hg8 mi
12:48 PM72 °FPartly sunny.7 mph12%30.23 "Hg8 mi
11:53 AM66 °FPartly sunny.7 mph14%30.08 "Hg7 mi
10:48 AM63 °FPartly sunny.3 mph24%30.30 "Hg6 mi
9:45 AM54 °FPartly sunny.3 mph33%30.31 "Hg7 mi
8:45 AM46 °FPartly sunny.No wind50%30.19 "Hg7 mi
7:48 AM37 °FPartly sunny.No wind70%30.28 "Hg8 mi
6:53 AM37 °FPassing clouds.3 mph70%30.26 "Hg8 mi
5:50 AM37 °FPartly cloudy.No wind70%30.10 "Hg7 mi
4:48 AM39 °FPartly cloudy.No wind65%30.22 "Hg7 mi
Weather by CustomWeather, © 2016

See weather overviewHow to use our weather pages